Regional Weather Roundup
Issued by NWS Mobile, AL

Home | Current Version | Previous Version | Text Only | Print | Product List | Glossary On
Versions: 1 2 3 4 5 6 7 8 9 10 11 12 13 14 15 16 17 18 19 20 21 22 23 24 25 26 27 28 29 30 31 32 33 34 35 36 37 38 39 40 41 42 43 44 45 46 47 48 49 50
988
ASUS44 KMOB 241613
RWRMOB
REGIONAL WEATHER ROUNDUP
NATIONAL WEATHER SERVICE MOBILE AL
1100 AM CDT SAT JUN 24 2017

NOTE: "FAIR" INDICATES FEW OR NO CLOUDS BELOW 12,000 FEET WITH NO
      SIGNIFICANT WEATHER AND/OR OBSTRUCTIONS TO VISIBILITY.

  * THESE STATIONS ARE PART OF THE UNIVERSITY OF SOUTH ALABAMA
    MESONET AND ARE NOT UNDER NWS OR FAA QUALITY CONTROL.

ALZ061>064-241700-
COASTAL ALABAMA

CITY           SKY/WX    TMP DP  RH WIND       PRES   REMARKS
MOBILE REG APT CLOUDY    80  73  79 NE3       30.07R
BROOKLEY FIELD PTSUNNY   82  77  84 N9        30.06S
USA CAMPUS*      N/A     79  73  83 CALM      30.06R
DOG RIVER*       N/A     77  75  94 VRB3      30.82


CITY           SKY/WX    TMP DP  RH WIND       PRES   REMARKS
GULF SHORES    CLOUDY    86  79  80 W13       30.04S HX  99

$$

ALZ051>060-241700-
INTERIOR SOUTHWEST AND SOUTH CENTRAL ALABAMA

CITY           SKY/WX    TMP DP  RH WIND       PRES   REMARKS
GREENVILLE     CLOUDY    82  72  71 W6        30.03R
EVERGREEN      PTSUNNY   83  73  72 VRB7      30.05R
ATMORE*        NOT AVBL
ANDALUSIA/OPP  PTSUNNY   87  75  67 W12       30.04R HX  96
ANDALUSIA*       N/A     79  75  89 W14       30.05S
FLORALA APT    LGT RAIN  84  75  74 SW8       30.05F
FLORALA*         N/A     86  75  70 S3        30.73S HX  95

$$

FLZ001>006-241700-
WESTERN FLORIDA PANHANDLE

CITY           SKY/WX    TMP DP  RH WIND       PRES   REMARKS
PENSACOLA      MOSUNNY   89  75  63 SW13G22   30.04R HX  99
NAS PENSACOLA  PTSUNNY   85  76  74 SW12      30.04S
MILTON         PTSUNNY   86  75  69 SW15      30.04R HX  95
WHTNG S FIELD  PTSUNNY   89  76  65 W7        30.04S HX 100


CITY           SKY/WX    TMP DP  RH WIND       PRES   REMARKS
JAY*             N/A     79  73  83 W6        30.06R
DUKE FIELD     MOSUNNY   87  75  67 SW16      30.03F HX  95
CRESTVIEW      PTSUNNY   87  74  64 SW13G18   30.05S HX  95
VALPARAISO     PTSUNNY   85  76  72 SW13      30.05S HX  95
DESTIN         CLOUDY    88  81  79 SW8       30.05S HX 106

$$

MSZ076-079-241700-
INTERIOR SOUTHEAST MISSISSIPPI

CITY           SKY/WX    TMP DP  RH WIND       PRES   REMARKS
LEAKESVILLE*   NOT AVBL
AGRICOLA*        N/A     81  75  83 CALM      30.05

$$

MARINE OBSERVATIONS

STATION/POSITION TIME  TEMP    WIND        PRES    WAVE
                       AIR SEA DIR/SP/G            HT/PER
                 (UTC) (F)     (DEG/KT/KT) (MB)    (FT/S)
PASCAGOULA       1548   84     250/  8/ 11 1017.4R
PETIT BOIS ISLND 1548   81     240/ 12/ 13 1018.1R
GRAND BAY        1430   82     230/ 10     1018.0S
KATRINA CUT      1530   81     240/ 14     1017.3R
CEDAR POINT      1530   82     240/ 13     1017.6R
E DAUPHIN ISLAND 1500   82     230/ 11/ 14 1016.9R
MIDDLE BAY LIGHT 1530   81     240/  4     1017.6R
USCG MOBILE BAY  1548   78 81  330/  7/ 10 1018.4R
STATE DOCKS      1548   80 80              1017.7R
MEAHER PARK      1530   80     310/  8     1017.3R
FORT MORGAN      1548   82     240/ 13/ 14   N/A
12 S ORANGE BCH  1450   81 81  220/ 12/ 14 1016.5F   3/ 6
PENSACOLA BAY    1548   87 82              1017.5R
64 S DAUPHIN ISL 1550   81 82  200/  8/ 10 1017.8F   3/ 7
67 S FORT MORGAN 1530   80     230/  4     1018.0S

$$

SELECTED LOCATIONS ACROSS THE REGION

CITY           SKY/WX    TMP DP  RH WIND       PRES   REMARKS
NEW ORLEANS    PTSUNNY   85  77  77 SW5       30.04R HX  95
GULFPORT       CLOUDY    83  76  79 VRB3      30.04R
PASCAGOULA AP  RAIN      76  74  93 N3        30.06R FOG
PASCAGOULA*    NOT AVBL
HATTIESBURG    PTSUNNY   80  71  74 W6        30.07R
LAUREL         MOSUNNY   81  72  74 CALM      30.09R
MERIDIAN       PTSUNNY   81  73  76 N8        30.05R
JACKSON        PTSUNNY   80  71  74 N7        30.07R
MONTGOMERY     PTSUNNY   85  73  67 W10       30.03R
TROY           CLOUDY    81  78  91 SW7       30.04S
ASHFORD*         N/A     79  75  89 W14       30.05S
DOTHAN         PTSUNNY   85  75  72 SW9G18    30.09R
PANAMA CITY    PTSUNNY   85  73  67 S14G23    30.05R

$$





USA.gov is the U.S. government's official web portal to all federal, state and local government web resources and services.